Regional Weather Roundup
Issued by NWS

Home | Current Version | Previous Version | Graphics & Text | Print | Product List | Glossary Off
Versions: 1 2 3 4 5 6 7 8 9 10 11 12 13 14 15 16 17 18 19 20 21 22 23 24 25 26 27 28 29 30 31 32 33 34 35 36 37 38 39 40 41 42 43 44 45 46 47 48 49 50

000
ASUS43 KMKX 230120
RWRWI

WISCONSIN REGIONAL WEATHER ROUNDUP
NATIONAL WEATHER SERVICE MILWAUKEE/SULLIVAN WI
700 PM CST WED NOV 22 2017

NOTE: "FAIR" INDICATES FEW OR NO CLOUDS BELOW 12,000 FEET WITH NO
SIGNIFICANT WEATHER AND/OR OBSTRUCTIONS TO VISIBILITY.

WIZ001-002-006>008-014>016-023>028-230200-
NORTHWEST WISCONSIN

CITY           SKY/WX    TMP DP  RH WIND       PRES   REMARKS
SUPERIOR ARPT  CLOUDY    23  19  84 SW7       30.05S FOG     WCI  15
ASHLAND        CLOUDY    24  14  65 S8        30.05F WCI  15
HAYWARD        CLOUDY    23  15  71 S9        30.04S WCI  13
SIREN          CLOUDY    24  19  80 S8        30.03F WCI  15
CUMBERLAND     CLOUDY    23  18  80 S8        30.02F WCI  14
RICE LAKE      CLOUDY    24  19  81 SE7       30.06F WCI  16
CHETEK         FLURRIES  24  18  78 S8        30.06F WCI  14
LADYSMITH      LGT SNOW  23  19  85 S7        30.06F WCI  15
EAU CLAIRE     CLOUDY    26  14  60 S8        30.08F WCI  18
MENOMONIE      CLOUDY    28  16  60 SE7       30.07F WCI  21
NEW RICHMOND   CLOUDY    28  16  63 S8        30.04S WCI  19
OSCEOLA        CLOUDY    28  19  69 SE8       30.06F WCI  19
$$

WIZ003>005-009-010-017-018-230200-
NORTH CENTRAL WISCONSIN

CITY           SKY/WX    TMP DP  RH WIND       PRES   REMARKS
MANITOWISH WTR CLOUDY    21  12  68 SW9       30.02F WCI  11
ARBOR VITAE    PTCLDY    23  14  68 SW7       30.03S WCI  15
WOODRUFF       PTCLDY    23  14  68 SW7       30.03S WCI  15
RHINELANDER    CLOUDY    22  13  68 SW10      30.04F WCI  11
EAGLE RIVER    PTCLDY    23  12  63 SW3       30.01F
LAND O LAKES   PTCLDY    23  13  64 SW5       30.03S WCI  17
PHILLIPS       FLURRIES  20  16  84 S8        30.03F WCI  11
TOMAHAWK       CLOUDY    22  13  69 CALM      30.05F
MEDFORD        LGT SNOW  22  15  75 S9        30.05F WCI  12
MERRILL        MOCLDY    24  14  64 SW5       30.07F WCI  19
$$

WIZ029-030-035-036-043>047-230200-
CENTRAL WISCONSIN

CITY           SKY/WX    TMP DP  RH WIND       PRES   REMARKS
WAUSAU         CLOUDY    25  13  60 SW9       30.07F WCI  15
MOSINEE        MOCLDY    25  14  63 S7        30.10F WCI  17
MARSHFIELD     CLOUDY    25  12  58 S7        30.08F WCI  17
STEVENS POINT  CLOUDY    25  13  58 SW7       30.11F WCI  18
WAUPACA        CLOUDY    31  14  50 S6        30.13F WCI  25
WAUTOMA        NOT AVBL
WISC RAPIDS    CLOUDY    28  14  55 SW7       30.12F WCI  21
CAMP DOUGLAS   PTCLDY    29  14  53 S5        30.11F WCI  24
$$

WIZ011>013-019>022-031-037>040-048>050-230200-
NORTHEAST WISCONSIN

CITY           SKY/WX    TMP DP  RH WIND       PRES   REMARKS
ANTIGO         CLOUDY    23  14  67 SW8       30.07F WCI  14
SHAWANO        CLOUDY    30  15  53 SW3       30.12F
OCONTO         CLOUDY    28  15  58 SW5       30.14F WCI  22
STURGEON BAY   MOCLDY    27  17  66 SW8       30.14F WCI  19
GREEN BAY      CLOUDY    29  18  63 SW8       30.15F WCI  21
MANITOWOC      CLOUDY    30  17  58 SW9       30.17F WCI  22
APPLETON       CLOUDY    28  12  50 SW8       30.13F WCI  20
CLINTONVILLE   CLOUDY    28  16  59 S3        30.13F
OSHKOSH        CLOUDY    29  16  58 S8        30.15F WCI  21
$$

WIZ032>034-041-042-053>061-230200-
SOUTHWEST WISCONSIN

CITY           SKY/WX    TMP DP  RH WIND       PRES   REMARKS
LA CROSSE      CLOUDY    32  17  54 S8        30.12F WCI  25
SPARTA         CLOUDY    29  16  58 S3        30.14S
VIROQUA        CLOUDY    29  19  65 S7        30.10S WCI  22
BOSCOBEL       CLOUDY    33  15  47 S8        30.17F WCI  26
PRAIRIE DU CHI CLOUDY    32  14  47 SE5       30.16F WCI  27
PLATTEVILLE    MOCLDY    31  20  63 S7        30.17S WCI  24
$$

WIZ056-057-062-063-064-067-068-230200-
SOUTH CENTRAL WISCONSIN

CITY           SKY/WX    TMP DP  RH WIND       PRES   REMARKS
REEDSBURG      CLOUDY    29  15  55 S5        30.13F WCI  24
BARABOO/DELLS  CLOUDY    29  15  55 S7        30.14F WCI  22
LONE ROCK      CLOUDY    31  17  56 S5        30.17F WCI  26
MINERAL POINT  PTCLDY    32  21  64 S5        30.15F WCI  27
MADISON        CLOUDY    31  15  52 S10       30.17F WCI  22
MIDDLETON      CLOUDY    32  17  55 S5        30.16F WCI  27
WATERTOWN      CLOUDY    29  18  62 S6        30.17F WCI  23
MONROE         CLOUDY    30  18  59 S8        30.16F WCI  23
JANESVILLE     CLOUDY    32  18  55 SW8       30.19F WCI  25
$$

WIZ051-052-058>065-066-070>072-230200-
SOUTHEAST WISCONSIN

CITY           SKY/WX    TMP DP  RH WIND       PRES   REMARKS
MILWAUKEE      CLOUDY    32  17  54 SW8       30.20F WCI  25
WAUKESHA       CLOUDY    28  16  59 SW6       30.20F WCI  22
MILWAUKEE/TIMM MOCLDY    30  12  47 SW7       30.21F WCI  23
RACINE         MOCLDY    31  17  56 S7        30.22F WCI  24
BURLINGTON     CLOUDY    32  24  72 SW5       30.21S WCI  27
KENOSHA        CLOUDY    31  17  56 S6        30.21F WCI  25
FOND DU LAC    CLOUDY    30  15  53 SW10      30.17F WCI  21
SHEBOYGAN      CLOUDY    29  18  63 SW7       30.17F WCI  22
WEST BEND      CLOUDY    30  16  55 SW6       30.17F WCI  24
JUNEAU         CLOUDY    29  17  61 S6        30.18F WCI  23
$$

LSZ147-162-230200-
LAKE SUPERIOR

STATION/POSITION TIME  TEMP    WIND        PRES    WAVE
                       AIR SEA DIR/SP/G            HT/PER
                 (UTC) (F)     (DEG/KT/KT) (MB)    (FT/S)
DEVILS ISLAND    0100   26     230/ 10/ 13 1018.5F
SAXON HARBOR     0040   26     190/  4/ 12 1017.3F
$$

LMZ867-665-643>646-230200-
LAKE MICHIGAN

STATION/POSITION TIME  TEMP    WIND        PRES    WAVE
                       AIR SEA DIR/SP/G            HT/PER
                 (UTC) (F)     (DEG/KT/KT) (MB)    (FT/S)
N MID LAKE BUOY  0050   32 47  210/ 16/ 19 1021.4F   3/ 4
NORTHPORT PIER   0055   28     190/  3/ 12 1020.3F
KEWAUNEE LAKESHO 0054   29     210/  7/  9 1020.4F
SHEBOYGAN LAKESH 0100   30     200/  8/  9 1022.8F
PORT WASHINGTON  0030   31     240/  4/  7 1023.4F
MILWAUKEE LAKESH 0100   32     230/  9/ 10   N/A
S MID LAKE BUOY  0050   35 47  250/ 10/ 14 1024.3F   1/ 6
KENOSHA   LAKESH 0100   31     200/  5/  7 1023.0
$$

TC  - TEMPERATURE IN CELSIUS
VSB - VISIBILITY IN STATUTE MILES
WCI - WIND CHILL INDEX
HX  - HEAT INDEX




USA.gov is the U.S. government's official web portal to all federal, state and local government web resources and services.